Date,TemperatureHighF,TemperatureAvgF,TemperatureLowF,DewpointHighF,DewpointAvgF,DewpointLowF,HumidityHigh,HumidityAvg,HumidityLow,PressureMaxIn,PressureMinIn,WindSpeedMaxMPH,WindSpeedAvgMPH,GustSpeedMaxMPH,PrecipitationSumIn
2013-4-1,84.0,75.1,70.3,71.9,67.8,63.0,89,79,53,30.07,29.96,13,5,19,0.13
2013-4-2,78.6,71.7,65.5,68.1,66.1,63.9,97,83,66,30.10,30.00,7,4,12,0.00
2013-4-3,80.5,76.1,72.6,70.9,68.9,66.8,85,79,70,30.08,30.01,9,5,12,0.00
2013-4-4,81.2,75.1,67.6,73.7,70.4,65.8,97,86,76,30.07,29.92,12,6,17,1.10
2013-4-5,73.3,68.1,65.3,71.5,66.0,63.6,97,93,81,30.00,29.84,9,4,11,0.81
2013-4-6,76.0,68.4,58.9,66.6,61.6,57.1,97,80,63,30.10,29.94,10,6,20,0.00
2013-4-7,76.7,73.1,70.7,64.7,63.5,61.7,80,72,65,30.16,30.04,9,6,13,0.00
2013-4-8,78.5,73.8,64.3,65.2,62.3,58.9,85,68,57,30.15,30.06,7,4,12,0.00
2013-4-9,79.4,75.5,73.1,69.1,67.1,64.7,79,75,68,30.17,30.06,10,6,16,0.00
2013-4-10,80.8,77.1,74.2,72.9,70.5,66.5,86,80,76,30.12,30.01,10,6,12,0.00
2013-4-11,81.0,77.7,75.0,73.8,72.4,70.4,89,84,76,30.04,29.92,9,7,16,0.02
2013-4-12,83.5,78.6,76.3,76.9,74.6,73.5,95,88,78,29.97,29.89,13,7,17,0.18
2013-4-13,81.9,76.9,73.6,75.6,73.5,71.0,96,89,77,29.99,29.89,9,3,14,0.36
2013-4-14,83.2,79.0,75.1,76.1,74.6,72.5,96,87,76,29.99,29.91,11,5,14,0.01
2013-4-15,85.0,77.0,69.0,77.7,73.4,67.5,97,89,73,30.09,29.93,10,3,14,1.31
2013-4-16,83.2,77.1,71.1,77.2,73.2,70.4,99,88,76,30.13,30.04,10,4,14,0.01
2013-4-17,80.7,77.5,75.1,71.6,69.8,68.1,85,77,66,30.12,30.04,11,6,13,0.00
2013-4-18,83.7,79.5,76.0,74.2,71.7,69.0,85,77,67,30.08,29.99,9,5,16,0.00
2013-4-19,85.0,80.7,77.7,75.0,73.2,71.1,86,78,69,30.07,29.98,12,7,20,0.00
2013-4-20,85.1,77.4,72.3,77.4,73.9,69.9,99,89,71,30.09,29.97,12,4,16,1.68
2013-4-21,82.4,76.6,71.8,74.0,72.2,69.3,96,86,74,30.11,30.00,8,4,12,0.00
2013-4-22,82.5,73.9,68.9,72.6,70.2,67.9,99,89,67,30.06,29.94,11,3,14,1.64
2013-4-23,80.6,74.0,66.9,70.3,66.7,62.3,99,79,62,30.10,29.97,13,7,16,0.01
2013-4-24,80.7,76.5,73.1,67.4,64.4,61.1,74,66,59,30.15,30.05,8,5,11,0.00
2013-4-25,78.5,75.6,72.4,64.3,62.9,61.2,72,65,58,30.22,30.09,8,5,10,0.00
2013-4-26,79.2,75.4,71.4,67.2,64.7,61.5,75,70,64,30.24,30.13,10,5,14,0.00
2013-4-27,79.6,76.2,73.1,68.2,65.0,62.1,78,68,61,30.22,30.10,9,6,16,0.00
2013-4-28,80.1,76.5,73.5,66.5,64.7,62.7,77,67,57,30.13,30.01,9,6,15,0.00
2013-4-29,81.1,77.3,75.0,71.9,68.8,63.8,84,75,66,30.05,29.95,8,5,14,0.02
2013-4-30,80.4,75.5,69.6,73.6,70.7,67.8,96,85,76,30.01,29.94,7,3,10,0.22